Hayward, WI

9:58 AM CST on November 18, 2019 (GMT -0600)
Sawyer County

Weather History for KHYR - September, 2019

Change the Weather History Date:

Tuesday, September 10, 2019

  Actual Average Record
Temperature  
Mean Temperature 63 °F -  
Max Temperature 77 °F 83 °F 91 °F (2005)
Min Temperature 51 °F 51 °F 36 °F (1997)
Degree Days  
Heating Degree Days 2    
Growing Degree Days 13 (Base 50)    
Moisture  
Dew Point 61 °F    
Average Humidity 84    
Maximum Humidity 96    
Minimum Humidity 60    
Precipitation  
Precipitation 0.00 in - - ()
Sea Level Pressure  
Sea Level Pressure 29.92 in    
Wind  
Wind Speed 7 mph (SSW)    
Max Wind Speed 13 mph    
Max Gust Speed 24 mph    
Visibility 7 miles    
Events Fog    
Averages and records for this station are not official NWS values.
T = Trace of Precipitation, MM = Missing Value Source: NWS Daily Summary

Daily Weather History Graph

Daily Weather History Graph

Search for Another Location

Airport or City:

Astronomy

Sep. 10, 2019 Rise Set
Actual Time 6:37 AM CDT 7:27 PM CDT
Civil Twilight 6:07 AM CDT 7:57 PM CDT
Nautical Twilight 5:30 AM CDT 8:33 PM CDT
Astronomical Twilight 4:52 AM CDT 9:11 PM CDT
Moon 6:16 PM CDT (9/10) 2:49 AM CDT (9/10)
Length of Visible Light 13h 50m
Length of Day
12h 49m
Waxing Gibbous, 89% of the Moon is Illuminated
Sep 10
Waxing Gibbous
Sep 13
Full
Sep 21
Last Quarter
Sep 28
New
Oct 5
First Quarter

Hourly Weather History & Observations

Time (CDT) Temp. Dew Point Humidity Pressure Visibility Wind Dir Wind Speed Gust Speed Precip Events Conditions
12:53 AM 64.0 °F 61.0 °F 90% 29.85 in 9.0 mi SSW 6.9 mph - N/A   Overcast
1:53 AM 64.9 °F 63.0 °F 93% 29.83 in 8.0 mi South 6.9 mph - N/A   Overcast
2:53 AM 66.0 °F 64.0 °F 93% 29.81 in 8.0 mi South 9.2 mph - N/A   Overcast
3:53 AM 66.9 °F 64.0 °F 90% 29.81 in 8.0 mi South 10.4 mph - N/A   Overcast
4:22 AM 66.9 °F 64.0 °F 90% 29.81 in 8.0 mi South 9.2 mph - N/A   Overcast
4:53 AM 66.9 °F 64.0 °F 90% 29.81 in 9.0 mi SSW 9.2 mph - N/A   Overcast
5:09 AM 66.9 °F 64.0 °F 90% 29.81 in 9.0 mi SSW 8.1 mph - N/A   Overcast
5:17 AM 66.9 °F 64.0 °F 90% 29.81 in 9.0 mi SSW 9.2 mph - N/A   Overcast
5:53 AM 66.9 °F 64.0 °F 90% 29.82 in 8.0 mi South 8.1 mph - N/A   Overcast
6:03 AM 66.9 °F 64.0 °F 90% 29.82 in 9.0 mi South 9.2 mph - N/A   Overcast
6:13 AM 66.9 °F 64.0 °F 90% 29.83 in 8.0 mi SSW 8.1 mph - N/A   Overcast
6:37 AM 66.9 °F 64.0 °F 90% 29.83 in 6.0 mi SSW 9.2 mph - N/A   Overcast
6:51 AM 66.2 °F 64.4 °F 94% 29.84 in 2.0 mi SSW 8.1 mph - N/A   Overcast
6:53 AM 66.9 °F 64.0 °F 90% 29.84 in 1.8 mi SSW 6.9 mph - N/A   Overcast
7:30 AM 66.9 °F 64.9 °F 93% 29.84 in 2.5 mi SSW 8.1 mph - 0.00 in   Overcast
7:37 AM 66.9 °F 64.9 °F 93% 29.84 in 4.0 mi SSW 9.2 mph - 0.00 in   Overcast
7:53 AM 66.9 °F 64.9 °F 93% 29.85 in 5.0 mi SSW 9.2 mph - 0.00 in   Overcast
8:53 AM 69.1 °F 64.9 °F 87% 29.87 in 7.0 mi SSW 8.1 mph - N/A   Overcast
9:06 AM 69.1 °F 64.9 °F 87% 29.88 in 7.0 mi SSW 9.2 mph - N/A   Overcast
9:53 AM 70.0 °F 66.0 °F 87% 29.89 in 9.0 mi SW 9.2 mph 17.3 mph N/A   Overcast
9:59 AM 70.0 °F 64.9 °F 84% 29.90 in 9.0 mi WSW 5.8 mph - N/A   Overcast
10:53 AM 73.0 °F 64.0 °F 73% 29.90 in 10.0 mi SW 11.5 mph 18.4 mph N/A   Scattered Clouds
11:09 AM 73.0 °F 64.0 °F 73% 29.90 in 10.0 mi WSW 8.1 mph - N/A   Mostly Cloudy
11:53 AM 73.9 °F 64.0 °F 71% 29.91 in 10.0 mi SW 10.4 mph 19.6 mph N/A   Overcast
12:04 PM 73.9 °F 63.0 °F 68% 29.92 in 10.0 mi SW 11.5 mph 24.2 mph N/A   Scattered Clouds
12:53 PM 73.9 °F 63.0 °F 68% 29.93 in 10.0 mi WSW 8.1 mph 17.3 mph N/A   Mostly Cloudy
1:53 PM 73.9 °F 61.0 °F 64% 29.94 in 10.0 mi West 8.1 mph 19.6 mph N/A   Scattered Clouds
2:53 PM 75.9 °F 61.0 °F 60% 29.94 in 10.0 mi SW 12.7 mph - N/A   Scattered Clouds
3:53 PM 75.9 °F 61.0 °F 60% 29.96 in 10.0 mi Variable 6.9 mph - N/A   Mostly Cloudy
4:53 PM 75.0 °F 60.1 °F 60% 29.97 in 10.0 mi West 10.4 mph 20.7 mph N/A   Scattered Clouds
5:53 PM 73.0 °F 61.0 °F 66% 30.00 in 10.0 mi Variable 4.6 mph - N/A   Mostly Cloudy
6:53 PM 70.0 °F 59.0 °F 68% 30.01 in 10.0 mi Variable 3.5 mph - N/A   Clear
7:53 PM 63.0 °F 57.9 °F 84% 30.03 in 10.0 mi Calm Calm - N/A   Clear
8:53 PM 59.0 °F 55.0 °F 87% 30.05 in 10.0 mi Calm Calm - N/A   Clear
9:53 PM 55.9 °F 54.0 °F 93% 30.08 in 10.0 mi NNE 3.5 mph - N/A   Partly Cloudy
10:53 PM 55.9 °F 53.1 °F 90% 30.08 in 10.0 mi Calm Calm - N/A   Clear
11:22 PM 53.1 °F 52.0 °F 96% 30.10 in 0.2 mi Calm Calm - N/A Fog Fog
11:33 PM 53.1 °F 52.0 °F 96% 30.11 in 1.2 mi Calm Calm - N/A   Partly Cloudy
11:40 PM 54.0 °F 51.1 °F 90% 30.11 in 4.0 mi Calm Calm - N/A   Partly Cloudy
11:47 PM 51.8 °F 50.0 °F 94% 30.11 in 1.0 mi Calm Calm - N/A   Clear
11:49 PM 51.8 °F 50.0 °F 94% 30.11 in 0.5 mi Calm Calm - N/A Fog Fog
11:53 PM 52.0 °F 50.0 °F 93% 30.10 in 0.2 mi Calm Calm - N/A Fog Fog